QPF
0.00 0.00 0.00 0.00 0.00 0.00 0.00 0.00 0.00 0.00 0.00 0.00 0.00 0.00 0.00 0.00 0.01 0.01 0.01 0.01 0.02 0.02 0.03 0.03 0.02 0.03 0.04 0.06 0.06 0.06 0.07 0.06 0.04 0.02 0.04 0.10 0.22 0.28 0.29 0.31 0.30 0.26 0.20
0.00 0.00 0.00 0.00 0.00 0.00 0.00 0.00 0.00 0.00 0.00 0.00 0.00 0.01 0.01 0.01 0.01 0.00 0.01 0.01 0.01 0.02 0.02 0.02 0.02 0.03 0.03 0.04 0.06 0.06 0.05 0.06 0.05 0.03 0.03 0.04 0.13 0.29 0.35 0.33 0.29 0.23 0.21
0.00 0.00 0.00 0.00 0.00 0.00 0.00 0.00 0.00 0.00 0.00 0.00 0.00 0.01 0.02 0.02 0.02 0.02 0.02 0.01 0.01 0.02 0.02 0.02 0.03 0.03 0.03 0.03 0.04 0.05 0.05 0.06 0.06 0.04 0.03 0.03 0.05 0.15 0.30 0.34 0.30 0.25 0.22
0.00 0.00 0.00 0.00 0.00 0.00 0.00 0.00 0.00 0.00 0.00 0.00 0.00 0.00 0.01 0.02 0.02 0.02 0.03 0.02 0.02 0.01 0.02 0.02 0.02 0.03 0.03 0.03 0.03 0.04 0.06 0.07 0.07 0.06 0.05 0.04 0.05 0.07 0.14 0.23 0.27 0.23 0.22
0.00 0.00 0.00 0.00 0.00 0.00 0.00 0.00 0.00 0.00 0.00 0.00 0.00 0.00 0.00 0.01 0.02 0.02 0.02 0.03 0.03 0.02 0.03 0.02 0.01 0.02 0.03 0.03 0.02 0.04 0.06 0.07 0.08 0.07 0.05 0.04 0.04 0.04 0.05 0.11 0.19 0.22 0.23
0.00 0.00 0.00 0.00 0.00 0.00 0.00 0.00 0.00 0.00 0.00 0.00 0.00 0.00 0.00 0.00 0.00 0.01 0.03 0.03 0.02 0.02 0.02 0.01 0.02 0.02 0.02 0.03 0.03 0.04 0.06 0.07 0.07 0.07 0.05 0.04 0.03 0.03 0.04 0.07 0.14 0.18 0.20
0.00 0.00 0.00 0.00 0.00 0.00 0.00 0.00 0.00 0.00 0.00 0.00 0.00 0.00 0.00 0.00 0.00 0.01 0.02 0.02 0.03 0.03 0.02 0.01 0.01 0.01 0.01 0.02 0.02 0.02 0.04 0.07 0.07 0.08 0.07 0.04 0.04 0.05 0.06 0.06 0.10 0.12 0.12
0.00 0.00 0.00 0.00 0.00 0.00 0.00 0.00 0.00 0.00 0.00 0.00 0.00 0.00 0.00 0.00 0.00 0.01 0.01 0.01 0.02 0.02 0.02 0.02 0.02 0.02 0.02 0.02 0.01 0.01 0.01 0.03 0.04 0.04 0.05 0.05 0.06 0.07 0.08 0.10 0.11 0.13 0.13
0.00 0.00 0.00 0.00 0.00 0.00 0.00 0.00 0.00 0.00 0.00 0.00 0.00 0.00 0.00 0.00 0.00 0.01 0.01 0.01 0.01 0.01 0.01 0.02 0.02 0.02 0.02 0.02 0.01 0.00 0.00 0.01 0.01 0.02 0.03 0.05 0.07 0.08 0.08 0.10 0.11 0.13 0.12
0.00 0.00 0.00 0.00 0.00 0.00 0.00 0.00 0.00 0.00 0.00 0.00 0.00 0.00 0.00 0.00 0.00 0.00 0.01 0.01 0.01 0.01 0.01 0.02 0.02 0.01 0.01 0.01 0.01 0.00 0.00 0.00 0.01 0.01 0.01 0.03 0.04 0.06 0.08 0.08 0.09 0.11 0.13
0.00 0.00 0.00 0.00 0.00 0.00 0.00 0.00 0.00 0.00 0.00 0.00 0.00 0.00 0.00 0.00 0.00 0.01 0.01 0.00 0.00 0.00 0.01 0.01 0.02 0.01 0.01 0.00 0.00 0.01 0.01 0.02 0.02 0.01 0.01 0.02 0.03 0.04 0.06 0.07 0.08 0.09 0.11
0.00 0.00 0.00 0.00 0.00 0.00 0.00 0.00 0.00 0.00 0.00 0.00 0.00 0.00 0.00 0.00 0.00 0.01 0.01 0.01 0.01 0.00 0.00 0.01 0.01 0.01 0.01 0.01 0.01 0.01 0.02 0.04 0.05 0.03 0.03 0.02 0.03 0.03 0.05 0.06 0.07 0.09 0.11
0.00 0.00 0.00 0.00 0.00 0.00 0.00 0.00 0.00 0.00 0.00 0.00 0.00 0.00 0.00 0.00 0.00 0.00 0.01 0.01 0.01 0.00 0.00 0.01 0.01 0.01 0.00 0.01 0.01 0.02 0.02 0.02 0.03 0.03 0.03 0.03 0.03 0.05 0.07 0.09 0.09 0.12 0.15
0.00 0.00 0.00 0.00 0.00 0.00 0.00 0.00 0.00 0.00 0.00 0.00 0.00 0.00 0.00 0.00 0.00 0.00 0.00 0.00 0.00 0.00 0.00 0.01 0.01 0.01 0.01 0.01 0.01 0.01 0.02 0.02 0.02 0.03 0.03 0.04 0.05 0.06 0.07 0.07 0.08 0.10 0.13
0.00 0.00 0.00 0.00 0.00 0.00 0.00 0.00 0.00 0.00 0.00 0.00 0.00 0.00 0.00 0.00 0.00 0.00 0.00 0.00 0.00 0.00 0.00 0.01 0.01 0.00 0.01 0.01 0.02 0.02 0.02 0.03 0.03 0.03 0.04 0.06 0.06 0.06 0.07 0.07 0.08 0.08 0.09
0.00 0.00 0.00 0.00 0.00 0.00 0.00 0.00 0.00 0.00 0.00 0.00 0.00 0.00 0.00 0.00 0.00 0.00 0.00 0.00 0.00 0.00 0.00 0.00 0.00 0.01 0.01 0.01 0.02 0.03 0.04 0.03 0.03 0.04 0.05 0.05 0.05 0.06 0.08 0.10 0.11 0.11 0.09
0.00 0.00 0.00 0.00 0.00 0.00 0.00 0.00 0.00 0.00 0.00 0.00 0.00 0.00 0.00 0.00 0.00 0.00 0.00 0.00 0.00 0.00 0.00 0.00 0.00 0.01 0.02 0.02 0.02 0.03 0.03 0.03 0.04 0.05 0.06 0.06 0.06 0.06 0.06 0.08 0.11 0.15 0.16
0.00 0.00 0.00 0.00 0.00 0.00 0.00 0.00 0.00 0.00 0.00 0.00 0.00 0.00 0.00 0.00 0.00 0.00 0.00 0.00 0.00 0.00 0.00 0.00 0.00 0.00 0.01 0.02 0.02 0.02 0.02 0.02 0.04 0.04 0.06 0.06 0.07 0.07 0.07 0.08 0.09 0.12 0.17
0.00 0.00 0.00 0.00 0.00 0.00 0.00 0.00 0.00 0.00 0.00 0.00 0.00 0.00 0.00 0.00 0.00 0.00 0.00 0.00 0.00 0.00 0.00 0.00 0.01 0.01 0.00 0.01 0.01 0.01 0.02 0.03 0.04 0.05 0.05 0.05 0.07 0.08 0.08 0.08 0.08 0.09 0.11
0.00 0.00 0.00 0.00 0.00 0.00 0.00 0.00 0.00 0.00 0.00 0.00 0.00 0.00 0.00 0.00 0.00 0.00 0.00 0.00 0.01 0.01 0.01 0.01 0.01 0.01 0.01 0.01 0.01 0.01 0.01 0.02 0.04 0.05 0.05 0.05 0.06 0.07 0.08 0.09 0.08 0.08 0.08
0.00 0.00 0.00 0.00 0.00 0.00 0.00 0.00 0.00 0.00 0.00 0.00 0.00 0.00 0.00 0.00 0.00 0.00 0.00 0.00 0.01 0.01 0.01 0.01 0.02 0.02 0.03 0.03 0.03 0.03 0.03 0.03 0.04 0.05 0.05 0.06 0.07 0.08 0.09 0.10 0.10 0.10 0.10
0.00 0.00 0.00 0.00 0.00 0.00 0.00 0.00 0.00 0.00 0.00 0.00 0.00 0.00 0.00 0.00 0.00 0.00 0.00 0.00 0.00 0.01 0.01 0.01 0.02 0.02 0.03 0.04 0.05 0.06 0.06 0.05 0.05 0.05 0.05 0.06 0.07 0.08 0.09 0.10 0.11 0.11 0.11
0.00 0.00 0.00 0.00 0.00 0.00 0.00 0.00 0.00 0.00 0.00 0.00 0.00 0.00 0.00 0.00 0.00 0.00 0.00 0.00 0.00 0.00 0.01 0.01 0.02 0.02 0.03 0.04 0.06 0.07 0.08 0.09 0.09 0.08 0.07 0.07 0.07 0.07 0.08 0.08 0.09 0.10 0.10
0.00 0.00 0.00 0.00 0.00 0.00 0.00 0.00 0.00 0.00 0.00 0.00 0.00 0.00 0.00 0.00 0.00 0.00 0.00 0.00 0.00 0.00 0.00 0.01 0.01 0.02 0.03 0.04 0.06 0.07 0.08 0.09 0.10 0.10 0.09 0.08 0.07 0.07 0.08 0.08 0.09 0.08 0.09
0.00 0.00 0.00 0.00 0.00 0.00 0.00 0.00 0.00 0.00 0.00 0.00 0.00 0.00 0.00 0.00 0.00 0.00 0.00 0.00 0.00 0.00 0.00 0.00 0.01 0.01 0.02 0.03 0.05 0.06 0.08 0.09 0.10 0.10 0.10 0.10 0.09 0.08 0.08 0.09 0.10 0.10 0.10
0.00 0.00 0.00 0.00 0.00 0.00 0.00 0.00 0.00 0.00 0.00 0.00 0.00 0.00 0.00 0.00 0.00 0.00 0.00 0.00 0.00 0.00 0.00 0.00 0.00 0.01 0.01 0.02 0.03 0.05 0.07 0.07 0.08 0.10 0.11 0.12 0.12 0.11 0.11 0.10 0.10 0.10 0.10
MSLP
1013.71 1013.79 1013.89 1013.96 1013.98 1013.94 1013.84 1013.68 1013.49 1013.29 1013.10 1012.92 1012.77 1012.63 1012.51 1012.38 1012.25 1012.12 1011.99 1011.88 1011.78 1011.69 1011.63 1011.57 1011.52 1011.45 1011.36 1011.24 1011.10 1010.93 1010.76 1010.58 1010.41 1010.23 1010.07 1009.91 1009.76 1009.64 1009.55 1009.51 1009.55 1009.68 1009.92
1013.53 1013.62 1013.72 1013.80 1013.85 1013.83 1013.76 1013.65 1013.49 1013.32 1013.15 1012.99 1012.84 1012.69 1012.56 1012.41 1012.27 1012.13 1011.99 1011.86 1011.74 1011.64 1011.54 1011.44 1011.34 1011.23 1011.10 1010.96 1010.80 1010.64 1010.48 1010.33 1010.18 1010.04 1009.89 1009.75 1009.60 1009.46 1009.35 1009.27 1009.27 1009.35 1009.55
1013.36 1013.48 1013.60 1013.71 1013.77 1013.78 1013.75 1013.66 1013.54 1013.40 1013.25 1013.09 1012.93 1012.78 1012.61 1012.45 1012.28 1012.11 1011.94 1011.78 1011.64 1011.50 1011.37 1011.24 1011.11 1010.97 1010.82 1010.66 1010.50 1010.35 1010.21 1010.09 1009.97 1009.85 1009.74 1009.61 1009.48 1009.34 1009.21 1009.11 1009.08 1009.12 1009.27
1013.19 1013.34 1013.49 1013.61 1013.69 1013.72 1013.71 1013.65 1013.56 1013.44 1013.31 1013.16 1013.00 1012.82 1012.64 1012.44 1012.23 1012.03 1011.83 1011.64 1011.46 1011.29 1011.13 1010.97 1010.82 1010.66 1010.49 1010.33 1010.17 1010.02 1009.90 1009.79 1009.70 1009.61 1009.52 1009.42 1009.30 1009.17 1009.04 1008.94 1008.88 1008.89 1009.00
1013.00 1013.17 1013.33 1013.46 1013.54 1013.57 1013.57 1013.52 1013.45 1013.36 1013.24 1013.10 1012.94 1012.76 1012.56 1012.33 1012.10 1011.86 1011.63 1011.41 1011.21 1011.02 1010.84 1010.66 1010.48 1010.31 1010.13 1009.95 1009.78 1009.63 1009.50 1009.39 1009.31 1009.23 1009.15 1009.07 1008.97 1008.86 1008.75 1008.65 1008.59 1008.59 1008.68
1012.78 1012.96 1013.11 1013.21 1013.27 1013.28 1013.27 1013.22 1013.16 1013.08 1012.98 1012.86 1012.71 1012.53 1012.32 1012.09 1011.84 1011.59 1011.34 1011.11 1010.89 1010.69 1010.50 1010.32 1010.13 1009.94 1009.74 1009.54 1009.34 1009.16 1009.01 1008.88 1008.77 1008.68 1008.61 1008.53 1008.45 1008.36 1008.28 1008.20 1008.16 1008.17 1008.25
1012.56 1012.71 1012.81 1012.86 1012.87 1012.84 1012.80 1012.73 1012.66 1012.59 1012.50 1012.40 1012.27 1012.10 1011.91 1011.68 1011.45 1011.20 1010.96 1010.73 1010.52 1010.33 1010.15 1009.97 1009.77 1009.57 1009.34 1009.11 1008.87 1008.65 1008.44 1008.26 1008.11 1007.99 1007.90 1007.82 1007.75 1007.68 1007.63 1007.59 1007.58 1007.62 1007.72
1012.35 1012.45 1012.48 1012.45 1012.39 1012.30 1012.20 1012.10 1012.01 1011.93 1011.85 1011.76 1011.65 1011.50 1011.33 1011.13 1010.91 1010.69 1010.48 1010.28 1010.10 1009.93 1009.77 1009.61 1009.42 1009.20 1008.96 1008.68 1008.39 1008.10 1007.83 1007.58 1007.37 1007.20 1007.07 1006.98 1006.91 1006.87 1006.85 1006.85 1006.89 1006.97 1007.09
1012.21 1012.22 1012.16 1012.05 1011.90 1011.73 1011.57 1011.43 1011.31 1011.21 1011.13 1011.04 1010.93 1010.80 1010.64 1010.46 1010.27 1010.08 1009.91 1009.75 1009.62 1009.50 1009.38 1009.24 1009.06 1008.85 1008.58 1008.27 1007.92 1007.57 1007.21 1006.89 1006.61 1006.39 1006.22 1006.11 1006.04 1006.02 1006.03 1006.07 1006.15 1006.26 1006.43
1012.14 1012.07 1011.92 1011.72 1011.49 1011.26 1011.04 1010.84 1010.69 1010.56 1010.45 1010.33 1010.21 1010.08 1009.92 1009.75 1009.58 1009.42 1009.28 1009.17 1009.09 1009.01 1008.94 1008.83 1008.68 1008.47 1008.19 1007.85 1007.46 1007.04 1006.63 1006.24 1005.89 1005.62 1005.41 1005.28 1005.21 1005.19 1005.23 1005.30 1005.41 1005.57 1005.76
1012.17 1012.02 1011.81 1011.54 1011.25 1010.96 1010.69 1010.45 1010.25 1010.08 1009.92 1009.77 1009.60 1009.43 1009.25 1009.06 1008.89 1008.73 1008.62 1008.54 1008.50 1008.47 1008.44 1008.37 1008.25 1008.05 1007.77 1007.41 1006.99 1006.53 1006.06 1005.62 1005.23 1004.91 1004.68 1004.53 1004.45 1004.45 1004.50 1004.60 1004.73 1004.90 1005.10
1012.28 1012.09 1011.83 1011.53 1011.21 1010.88 1010.58 1010.31 1010.06 1009.84 1009.62 1009.41 1009.18 1008.94 1008.70 1008.47 1008.26 1008.09 1007.97 1007.91 1007.89 1007.89 1007.89 1007.86 1007.76 1007.58 1007.30 1006.93 1006.49 1006.01 1005.51 1005.04 1004.62 1004.28 1004.03 1003.87 1003.80 1003.80 1003.85 1003.96 1004.09 1004.26 1004.46
1012.45 1012.24 1011.98 1011.68 1011.35 1011.03 1010.72 1010.43 1010.14 1009.87 1009.58 1009.29 1008.98 1008.65 1008.33 1008.02 1007.76 1007.55 1007.40 1007.32 1007.30 1007.31 1007.33 1007.31 1007.22 1007.05 1006.78 1006.41 1005.97 1005.47 1004.97 1004.48 1004.05 1003.70 1003.44 1003.28 1003.21 1003.21 1003.27 1003.36 1003.49 1003.64 1003.82
1012.65 1012.46 1012.22 1011.94 1011.65 1011.35 1011.05 1010.75 1010.44 1010.12 1009.77 1009.39 1008.99 1008.57 1008.16 1007.77 1007.43 1007.16 1006.96 1006.85 1006.81 1006.81 1006.81 1006.79 1006.70 1006.53 1006.25 1005.88 1005.43 1004.94 1004.42 1003.94 1003.51 1003.16 1002.90 1002.74 1002.67 1002.67 1002.71 1002.79 1002.90 1003.02 1003.16
1012.84 1012.68 1012.48 1012.25 1012.00 1011.74 1011.47 1011.18 1010.86 1010.51 1010.11 1009.67 1009.19 1008.69 1008.20 1007.73 1007.31 1006.98 1006.73 1006.58 1006.49 1006.46 1006.44 1006.39 1006.28 1006.08 1005.79 1005.41 1004.95 1004.45 1003.93 1003.44 1003.01 1002.66 1002.41 1002.25 1002.17 1002.15 1002.18 1002.23 1002.30 1002.38 1002.48
1013.00 1012.88 1012.72 1012.54 1012.35 1012.13 1011.90 1011.63 1011.32 1010.96 1010.53 1010.06 1009.53 1008.98 1008.43 1007.91 1007.45 1007.06 1006.77 1006.57 1006.44 1006.36 1006.29 1006.20 1006.05 1005.82 1005.50 1005.09 1004.60 1004.08 1003.55 1003.05 1002.61 1002.25 1001.99 1001.81 1001.71 1001.67 1001.67 1001.69 1001.72 1001.76 1001.81
1013.12 1013.02 1012.90 1012.76 1012.61 1012.44 1012.24 1012.01 1011.72 1011.37 1010.95 1010.48 1009.94 1009.38 1008.82 1008.28 1007.80 1007.40 1007.08 1006.85 1006.68 1006.56 1006.44 1006.30 1006.10 1005.81 1005.44 1004.99 1004.47 1003.91 1003.35 1002.83 1002.36 1001.98 1001.68 1001.48 1001.34 1001.27 1001.22 1001.20 1001.19 1001.18 1001.18
1013.18 1013.10 1013.00 1012.88 1012.76 1012.62 1012.46 1012.26 1012.01 1011.70 1011.32 1010.88 1010.38 1009.85 1009.32 1008.81 1008.35 1007.95 1007.63 1007.38 1007.19 1007.03 1006.87 1006.67 1006.41 1006.07 1005.65 1005.14 1004.57 1003.97 1003.37 1002.81 1002.30 1001.87 1001.53 1001.28 1001.09 1000.97 1000.87 1000.80 1000.73 1000.68 1000.65
1013.20 1013.11 1013.01 1012.91 1012.80 1012.69 1012.56 1012.40 1012.19 1011.93 1011.60 1011.22 1010.79 1010.33 1009.86 1009.41 1008.99 1008.63 1008.33 1008.09 1007.88 1007.69 1007.49 1007.24 1006.93 1006.54 1006.06 1005.51 1004.89 1004.25 1003.61 1002.99 1002.44 1001.96 1001.56 1001.24 1000.99 1000.79 1000.63 1000.50 1000.39 1000.29 1000.22
1013.18 1013.07 1012.96 1012.86 1012.76 1012.66 1012.55 1012.42 1012.26 1012.06 1011.80 1011.49 1011.14 1010.76 1010.37 1009.99 1009.63 1009.32 1009.05 1008.81 1008.60 1008.40 1008.16 1007.88 1007.53 1007.10 1006.58 1005.99 1005.35 1004.67 1003.99 1003.34 1002.73 1002.19 1001.73 1001.33 1001.01 1000.73 1000.50 1000.30 1000.13 999.99 999.89
1013.11 1012.99 1012.87 1012.76 1012.66 1012.57 1012.48 1012.38 1012.26 1012.10 1011.91 1011.67 1011.39 1011.08 1010.76 1010.45 1010.15 1009.87 1009.63 1009.41 1009.19 1008.97 1008.72 1008.41 1008.04 1007.59 1007.06 1006.46 1005.81 1005.12 1004.42 1003.75 1003.11 1002.52 1001.99 1001.52 1001.11 1000.75 1000.44 1000.16 999.93 999.74 999.61
1013.00 1012.87 1012.75 1012.64 1012.54 1012.46 1012.39 1012.31 1012.21 1012.09 1011.93 1011.74 1011.51 1011.25 1010.97 1010.70 1010.43 1010.18 1009.94 1009.72 1009.50 1009.26 1009.00 1008.69 1008.31 1007.87 1007.36 1006.77 1006.14 1005.47 1004.79 1004.11 1003.46 1002.84 1002.26 1001.73 1001.24 1000.80 1000.40 1000.04 999.73 999.49 999.32
1012.84 1012.72 1012.61 1012.51 1012.43 1012.36 1012.29 1012.22 1012.13 1012.02 1011.87 1011.68 1011.47 1011.22 1010.95 1010.68 1010.41 1010.15 1009.90 1009.66 1009.43 1009.18 1008.91 1008.60 1008.24 1007.83 1007.35 1006.82 1006.24 1005.63 1004.99 1004.35 1003.70 1003.08 1002.47 1001.89 1001.33 1000.81 1000.32 999.88 999.49 999.18 998.96
1012.62 1012.54 1012.46 1012.38 1012.32 1012.26 1012.20 1012.12 1012.02 1011.89 1011.72 1011.52 1011.27 1011.00 1010.71 1010.41 1010.10 1009.81 1009.53 1009.26 1009.00 1008.73 1008.46 1008.16 1007.83 1007.46 1007.04 1006.58 1006.08 1005.54 1004.98 1004.39 1003.79 1003.18 1002.57 1001.96 1001.35 1000.76 1000.19 999.67 999.20 998.81 998.53
1012.37 1012.33 1012.29 1012.25 1012.21 1012.16 1012.09 1012.00 1011.87 1011.71 1011.50 1011.24 1010.95 1010.62 1010.28 1009.92 1009.57 1009.23 1008.91 1008.60 1008.31 1008.02 1007.74 1007.45 1007.15 1006.83 1006.48 1006.09 1005.68 1005.24 1004.76 1004.25 1003.71 1003.15 1002.55 1001.93 1001.29 1000.65 1000.01 999.41 998.86 998.39 998.03
1012.08 1012.10 1012.10 1012.10 1012.08 1012.04 1011.96 1011.84 1011.68 1011.47 1011.20 1010.89 1010.53 1010.15 1009.74 1009.34 1008.93 1008.54 1008.17 1007.83 1007.50 1007.20 1006.90 1006.62 1006.33 1006.05 1005.75 1005.43 1005.10 1004.74 1004.35 1003.93 1003.47 1002.96 1002.40 1001.80 1001.16 1000.49 999.81 999.14 998.51 997.96 997.52
Thickness
5694 5690 5686 5682 5678 5675 5671 5668 5665 5663 5661 5659 5656 5654 5653 5652 5651 5650 5649 5649 5649 5650 5652 5654 5656 5660 5662 5666 5670 5674 5677 5680 5682 5688 5695 5700 5704 5709 5713 5717 5719 5721 5723
5696 5691 5687 5683 5679 5675 5672 5669 5666 5663 5661 5658 5656 5653 5651 5650 5648 5646 5645 5645 5644 5645 5646 5648 5650 5654 5657 5660 5664 5668 5671 5675 5678 5681 5686 5691 5697 5701 5706 5709 5712 5715 5717
5697 5692 5687 5683 5679 5676 5673 5670 5667 5663 5661 5658 5655 5652 5650 5648 5646 5644 5642 5642 5641 5641 5642 5643 5645 5648 5651 5654 5658 5662 5666 5670 5673 5676 5679 5684 5689 5694 5697 5701 5704 5708 5711
5697 5692 5688 5684 5681 5677 5674 5670 5667 5664 5660 5657 5654 5652 5649 5647 5645 5643 5641 5640 5639 5639 5639 5640 5642 5644 5646 5650 5653 5657 5660 5663 5667 5670 5673 5677 5681 5686 5689 5692 5695 5699 5703
5697 5692 5689 5686 5682 5678 5674 5671 5667 5664 5661 5657 5654 5651 5649 5647 5645 5642 5640 5639 5637 5637 5637 5638 5640 5642 5645 5648 5651 5653 5656 5658 5661 5663 5666 5670 5674 5677 5681 5685 5687 5691 5694
5698 5693 5690 5686 5682 5678 5675 5671 5667 5664 5661 5657 5654 5651 5648 5647 5646 5644 5641 5638 5637 5636 5636 5637 5639 5641 5644 5647 5649 5652 5654 5654 5656 5659 5661 5665 5669 5673 5676 5678 5680 5682 5685
5696 5692 5689 5685 5681 5678 5675 5671 5667 5664 5661 5657 5654 5651 5648 5647 5646 5645 5642 5639 5637 5636 5636 5636 5639 5641 5642 5643 5646 5649 5651 5654 5656 5657 5658 5661 5665 5669 5670 5671 5674 5676 5680
5694 5691 5687 5684 5680 5677 5674 5670 5667 5664 5661 5658 5655 5652 5649 5648 5648 5645 5643 5640 5638 5637 5636 5636 5637 5638 5640 5641 5642 5644 5646 5649 5652 5655 5657 5660 5662 5664 5667 5668 5669 5669 5672
5691 5688 5686 5682 5679 5676 5673 5670 5668 5664 5661 5659 5656 5653 5650 5649 5649 5646 5644 5640 5638 5637 5637 5637 5637 5637 5639 5640 5640 5640 5642 5644 5648 5651 5654 5656 5659 5661 5662 5661 5661 5661 5663
5689 5686 5684 5681 5678 5675 5672 5670 5668 5665 5662 5660 5657 5655 5652 5650 5649 5648 5645 5640 5637 5637 5637 5637 5637 5637 5638 5638 5637 5637 5638 5641 5643 5646 5649 5652 5654 5656 5658 5658 5659 5657 5657
5686 5684 5681 5678 5676 5674 5671 5669 5667 5665 5662 5659 5657 5656 5653 5651 5650 5648 5646 5641 5638 5637 5636 5636 5637 5638 5638 5638 5637 5636 5638 5639 5640 5642 5644 5646 5649 5651 5653 5654 5656 5656 5655
5682 5679 5676 5674 5673 5672 5668 5666 5664 5662 5659 5657 5655 5654 5653 5651 5650 5648 5646 5644 5641 5637 5637 5637 5637 5637 5638 5638 5638 5638 5638 5638 5638 5639 5640 5643 5644 5647 5649 5650 5651 5652 5653
5675 5672 5670 5669 5667 5666 5664 5662 5660 5658 5655 5654 5652 5650 5649 5649 5647 5647 5646 5644 5641 5638 5637 5637 5637 5637 5637 5637 5638 5638 5637 5636 5636 5636 5638 5640 5642 5643 5644 5645 5646 5646 5646
5668 5665 5663 5662 5660 5660 5658 5657 5655 5653 5651 5649 5647 5645 5644 5644 5643 5643 5641 5640 5639 5637 5635 5635 5635 5635 5634 5635 5636 5635 5635 5634 5634 5634 5635 5637 5638 5639 5640 5641 5640 5640 5640
5660 5658 5656 5655 5653 5652 5651 5650 5648 5647 5646 5643 5642 5640 5638 5638 5639 5639 5638 5636 5634 5633 5631 5630 5630 5630 5630 5631 5631 5632 5632 5631 5631 5632 5632 5633 5634 5635 5636 5636 5636 5636 5636
5652 5650 5647 5646 5645 5643 5642 5641 5642 5641 5640 5639 5637 5635 5634 5634 5635 5635 5635 5633 5631 5630 5626 5624 5623 5623 5624 5625 5626 5627 5628 5628 5629 5629 5629 5630 5631 5632 5632 5632 5631 5631 5632
5643 5641 5638 5637 5636 5635 5634 5632 5631 5632 5632 5631 5630 5629 5628 5628 5627 5627 5626 5625 5623 5622 5618 5616 5615 5616 5617 5619 5620 5621 5623 5624 5625 5625 5626 5626 5626 5627 5627 5627 5626 5626 5627
5635 5633 5630 5627 5626 5625 5624 5623 5622 5620 5619 5619 5620 5619 5619 5619 5618 5617 5616 5615 5612 5611 5607 5606 5606 5606 5608 5609 5611 5613 5616 5618 5619 5620 5621 5622 5622 5622 5622 5622 5622 5621 5621
5625 5623 5620 5618 5617 5616 5615 5614 5613 5611 5609 5608 5608 5608 5608 5607 5606 5605 5603 5600 5598 5596 5596 5595 5595 5595 5597 5598 5600 5603 5605 5608 5610 5612 5614 5615 5616 5617 5618 5618 5618 5617 5616
5615 5616 5613 5609 5607 5605 5604 5602 5601 5600 5598 5597 5596 5595 5596 5595 5593 5590 5589 5586 5584 5582 5582 5582 5583 5583 5584 5586 5588 5590 5593 5595 5598 5601 5604 5606 5608 5610 5612 5613 5613 5613 5613
5604 5603 5603 5599 5596 5594 5592 5591 5589 5587 5586 5584 5583 5583 5584 5581 5578 5576 5574 5572 5570 5569 5568 5568 5568 5568 5569 5571 5572 5575 5578 5581 5583 5586 5590 5594 5597 5600 5603 5605 5607 5608 5608
5593 5591 5589 5587 5585 5583 5581 5580 5578 5576 5574 5573 5571 5570 5570 5567 5565 5563 5561 5559 5557 5556 5555 5554 5553 5553 5553 5554 5556 5557 5559 5562 5565 5568 5573 5579 5585 5589 5593 5596 5599 5601 5602
5583 5581 5579 5576 5574 5573 5570 5568 5566 5564 5563 5561 5560 5558 5556 5553 5551 5549 5547 5546 5544 5543 5541 5540 5539 5539 5539 5538 5539 5540 5541 5543 5546 5551 5556 5562 5569 5576 5581 5585 5589 5592 5596
5572 5570 5568 5565 5563 5561 5558 5556 5554 5553 5551 5550 5548 5546 5543 5541 5538 5536 5534 5532 5530 5529 5527 5526 5525 5524 5523 5523 5523 5523 5524 5526 5529 5533 5538 5545 5552 5560 5567 5573 5578 5582 5586
5561 5559 5557 5554 5552 5549 5547 5545 5543 5541 5539 5537 5535 5533 5530 5528 5525 5523 5521 5518 5516 5514 5512 5510 5508 5507 5506 5506 5506 5506 5507 5509 5512 5515 5521 5527 5534 5542 5551 5559 5565 5571 5576
5550 5548 5546 5543 5541 5539 5536 5534 5532 5530 5527 5525 5523 5519 5517 5514 5512 5509 5507 5504 5501 5498 5496 5494 5492 5490 5489 5489 5489 5489 5490 5491 5494 5497 5501 5508 5516 5524 5532 5541 5550 5558 5564